Location: Deurze
(52.9838°N, 6.6090°E)
Time: 16:17:48
(UTC+00:00)

Cosmos 1269 Rocket - Visible Passes

Search period start: 11 June 2026 00:00
Search period end: 21 June 2026 00:00
Orbit: 768 x 775 km, 74.1° (Epoch: 11 June)

Date Brightness Start Highest point End Pass type
(mag) Time Alt. Az. Time Alt. Az. Time Alt. Az.
11 Jun 5.6 01:04:54 10° SSE 01:09:11 26° E 01:13:31 10° NE visible
12 Jun 6.1 00:30:07 10° SE 00:33:27 17° E 00:36:49 10° NE visible
12 Jun 4.1 02:09:34 10° SSW 02:14:52 88° WNW 02:20:12 10° NNE visible
12 Jun 6.4 23:56:35 10° ESE 23:57:49 11° E 23:59:02 10° ENE visible
13 Jun 4.3 01:33:46 11° S 01:38:51 62° ESE 01:44:05 10° NNE visible
14 Jun 4.9 00:58:26 12° S 01:02:56 41° ESE 01:07:52 10° NE visible
15 Jun 5.5 00:23:04 12° SSE 00:27:06 27° E 00:31:30 10° NE visible
15 Jun 4.4 02:03:42 10° SW 02:08:54 58° WNW 02:14:09 10° NNE visible
15 Jun 6.0 23:47:52 10° SE 23:51:21 18° E 23:54:51 10° NE visible
16 Jun 4.1 01:28:00 13° SSW 01:32:48 85° WNW 01:38:08 10° NNE visible
16 Jun 6.3 23:14:03 10° ESE 23:15:42 11° E 23:17:20 10° ENE visible
17 Jun 4.2 00:52:34 16° S 00:56:46 65° ESE 01:02:02 10° NNE visible
18 Jun 4.7 00:17:07 17° S 00:20:50 43° ESE 00:25:50 10° NE visible
18 Jun 5.0 01:58:08 10° WSW 02:03:04 39° NW 02:08:02 10° NNE visible
18 Jun 5.3 23:41:39 15° SSE 23:45:00 28° E 23:49:28 10° NE visible
19 Jun 4.5 01:21:58 12° SW 01:26:50 56° WNW 01:32:05 10° NNE visible
19 Jun 5.8 23:06:08 12° SE 23:09:15 19° E 23:12:51 10° NE visible
20 Jun 4.1 00:46:28 16° SSW 00:50:43 82° WNW 00:56:04 10° NNE visible
20 Jun 6.1 22:31:37 10° ESE 22:33:34 12° E 22:35:31 10° ENE visible
